SCP
0 0 0 0 0 0 0 0 0 0 0 0 0 0 0 0 0 0 0 0 0 0 0 0 0 0 0 0 0 0 0 0 0 0 0 0 0 0
0 0 0 0 0 0 0 0 0 0 0 0 0 0 0 0 0 0 0 0 0 0 0 0 0 0 0 0 0 0 0 0 0 0 0 0 0 0
0 0 0 0 0 0 0 0 0 0 0 0 0 0 0 0 0 0 0 0 0 0 0 0 0 0 0 0 0 0 0 0 0 0 0 0 0 0
0 0 0 0 0 0 0 0 0 0 0 0 0 0 0 0 0 0 0 0 0 0 0 0 0 0 0 0 0 0 0 0 0 0 0 0 0 0
0 0 0 0 0 0 0 0 0 0 0 0 0 0 0 0 0 0 0 0 0 0 0 0 0 0 0 0 0 0 0 0 0 0 0 0 0 0
0 0 0 0 0 0 0 0 0 0 0 0 0 0 0 0 0 0 0 0 0 0 0 0 0 0 0 0 0 0 0 0 0 0 0 0 0 0
0 0 0 0 0 0 0 0 0 0 0 0 0 0 0 0 0 0 0 0 0 0 0 0 0 0 0 0 0 0 0 0 0 0 0 0 0 0
0 0 0 0 0 0 0 0 0 0 0 0 0 0 0 0 0 0 0 0 0 0 0 0 0 0 0 0 0 0 0 0 0 0 0 0 0 0
0 0 0 0 0 0 0 0 0 0 0 0 0 0 0 0 0 0 0 0 0 0 0 0 0 0 0 0 0 0 0 0 0 0 0 0 0 0
0 0 0 0 0 0 0 0 0 0 0 0 0 0 0 0 0 0 0 0 0 0 0 0 0 0 0 0 0 0 0 0 0 0 0 0 0 0
0 0 0 0 0 0 0 0 0 0 0 0 0 0 0 0 0 0 0 0 0 0 0 0 0 0 0 0 0 0 0 0 0 0 0 0 0 0
0 0 0 0 0 0 0 0 0 0 0 0 0 0 0 0 0 0 0 0 0 0 0 0 0 0 0 0 0 0 0 0 0 0 0 0 0 0
0 0 0 0 0 0 0 0 0 0 0 0 0 0 0 0 0 0 0 0 0 0 0 0 0 0 0 0 0 0 0 0 0 0 0 0 0 0
0 0 0 0 0 0 0 0 0 0 0 0 0 0 0 0 0 0 0 0 0 0 0 0 0 0 0 0 0 0 0 0 0 0 0 0 0 0
0 0 0 0 0 0 0 0 0 0 0 0 0 0 0 0 0 0 0 0 0 0 0 0 0 0 0 0 0 0 0 0 0 0 0 0 0 0
0 0 0 0 0 0 0 0 0 0 0 0 0 0 0 0 0 0 0 0 0 0 0 0 0 0 0 0 0 0 0 0 0 0 0 0 0 0
0 0 0 0 0 0 0 0 0 0 0 0 0 0 0 0 0 0 0 0 0 0 0 0 0 0 0 0 0 0 0 0 0 0 0 0 0 0
0 0 0 0 0 0 0 0 0 0 0 0 0 0 0 0 0 0 0 0 0 0 0 0 0 0 0 0 0 0 0 0 0 0 0 0 0 0
0 0 0 0 0 0 0 0 0 0 0 0 0 0 0 0 0 0 0 0 0 0 0 0 0 0 0 0 0 0 0 0 0 0 0 0 0 0
0 0 0 0 0 0 0 0 0 0 0 0 0 0 0 0 0 0 0 0 0 0 0 0 0 0 0 0 0 0 0 0 0 0 0 0 0 0
0 0 0 0 0 0 0 0 0 0 0 0 0 0 0 0 0 0 0 0 0 0 0 0 0 0 0 0 0 0 0 0 0 0 0 0 0 0
0 0 0 0 0 0 0 0 0 0 0 0 0 0 0 0 0 0 0 0 0 0 0 0 0 0 0 0 0 0 0 0 0 0 0 0 0 0
0 0 0 0 0 0 0 0 0 0 0 0 0 0 0 0 0 0 0 0 0 0 0 0 0 0 0 0 0 0 0 0 0 0 0 0 0 0
Wind_Speed
2 2 2 2 2 2 2 3 3 3 3 3 2 2 2 2 5 5 6 10 11 10 9 9 8 8 7 7 6 6 7 7 7 7 7 7 7 7
1 2 2 2 2 2 2 3 3 3 3 2 2 2 2 3 6 5 5 11 11 11 10 10 9 8 8 7 6 6 6 6 6 6 6 6 6 6
1 1 2 2 2 1 2 2 2 3 3 2 1 2 3 3 4 3 3 5 6 10 10 10 10 9 8 8 7 6 6 5 5 6 6 6 6 6
1 1 1 1 1 2 2 3 3 3 3 3 2 2 3 4 4 4 3 4 4 9 11 10 10 10 9 8 7 7 6 6 5 5 6 6 7 6
1 1 1 1 1 1 1 2 2 2 3 3 2 2 2 3 3 3 3 3 4 6 9 9 10 10 9 8 8 7 7 6 6 6 5 5 5 5
1 1 1 0 1 1 1 1 1 2 3 3 2 2 2 2 3 3 3 3 3 3 4 5 7 8 9 9 8 8 8 7 7 6 5 5 5 6
1 1 1 1 2 1 1 1 1 1 2 3 3 2 2 3 4 3 4 3 2 2 3 3 4 3 4 6 8 9 8 8 8 7 7 6 5 5
2 1 1 1 2 3 3 2 3 3 3 3 2 4 4 4 3 4 4 4 3 3 4 3 3 3 3 3 6 9 9 9 8 8 7 7 6 6
2 1 1 1 1 1 2 2 2 4 4 4 3 4 4 4 5 5 5 4 3 5 4 3 2 3 3 4 9 9 10 9 9 8 8 7 7 7
2 2 1 2 2 2 2 1 1 1 2 3 3 3 3 4 5 5 5 4 3 2 3 3 2 2 3 3 8 10 9 9 9 9 9 8 8 8
3 4 3 3 5 6 2 1 1 1 1 1 3 3 4 5 5 5 5 5 3 2 2 3 3 3 2 2 4 9 8 8 8 9 9 8 8 7
3 3 5 4 5 6 2 1 0 0 0 0 1 1 2 5 7 6 6 6 4 3 3 3 3 3 2 1 3 4 5 6 7 8 8 8 7 5
3 2 2 5 5 5 4 1 0 0 0 1 1 1 2 2 3 3 3 5 4 3 5 4 4 3 3 3 2 3 4 4 4 4 6 8 7 6
2 2 2 4 5 5 3 2 2 1 1 1 2 1 1 2 2 3 3 3 2 3 6 5 4 4 4 4 3 4 4 4 4 4 4 6 6 6
1 2 4 5 5 3 2 2 2 1 1 1 1 1 1 2 2 2 3 3 3 3 5 4 4 4 4 4 4 4 4 3 4 4 5 5 4 4
2 3 4 4 3 3 3 2 1 1 1 1 1 2 2 2 2 2 3 3 3 2 2 3 4 5 3 3 4 4 4 5 5 5 5 4 4 4
3 3 2 2 2 2 2 1 1 1 1 1 1 2 2 2 2 2 3 2 2 2 2 2 2 3 3 3 4 4 4 4 4 5 4 4 4 5
2 2 3 3 2 2 2 2 2 2 2 2 2 2 2 3 2 2 3 3 3 3 3 3 3 2 1 1 2 5 4 4 4 5 4 4 4 4
2 4 4 4 3 3 2 2 2 2 2 2 2 3 3 3 3 3 3 3 3 3 4 4 4 4 4 3 3 4 5 4 4 4 4 4 4 4
4 5 5 4 4 3 3 3 3 2 2 3 3 3 3 3 3 3 4 4 4 3 4 4 4 5 5 4 3 3 5 5 5 5 4 3 2 2
5 6 6 5 4 4 4 3 3 3 4 3 4 4 3 3 3 4 4 5 4 4 4 5 5 6 3 3 2 1 2 4 4 4 5 4 3 2
6 6 5 5 5 4 4 4 4 4 4 4 4 4 4 4 4 5 4 4 4 4 4 3 4 4 3 4 4 3 3 2 2 3 3 5 5 5
7 7 6 5 5 5 4 5 6 5 4 5 4 4 5 4 4 4 5 5 4 5 4 4 3 3 3 4 4 3 4 4 3 3 3 6 8 7
Wind_Direction
237 237 228 219 210 195 183 174 167 185 219 216 202 218 186 166 162 173 166 174 177 177 175 172 172 174 178 185 192 196 200 199 196 196 198 194 200 205
237 228 229 224 217 201 185 187 182 179 203 211 198 194 184 179 170 183 169 168 175 177 177 177 175 172 172 175 176 175 177 180 182 183 180 187 197 204
279 243 237 222 205 204 193 187 191 176 189 212 195 176 175 175 169 182 161 163 173 177 178 178 175 172 174 174 171 168 169 172 178 181 185 186 190 197
301 288 264 247 217 213 201 200 195 189 178 186 199 192 192 178 167 170 166 160 166 176 177 175 173 171 170 169 166 167 167 168 168 172 182 186 190 193
293 309 309 296 259 253 232 214 196 195 176 174 190 192 184 172 161 169 161 150 162 168 173 172 168 165 166 164 161 161 159 159 159 157 157 164 171 173
313 316 327 218 252 269 236 242 201 184 174 171 180 187 182 177 160 169 164 158 154 153 158 156 156 159 161 159 158 157 154 151 149 147 145 148 158 162
308 292 273 185 206 221 211 216 205 187 176 176 184 186 190 179 182 174 170 157 148 148 141 146 148 154 160 160 161 158 155 152 147 143 141 140 142 152
310 308 269 208 194 218 223 223 202 190 191 188 194 197 204 197 183 172 165 166 172 173 150 153 152 157 160 158 159 159 156 152 148 144 140 142 143 142
320 317 327 39 30 341 265 239 216 208 208 200 198 214 205 196 184 180 179 174 172 164 144 150 153 149 145 149 153 153 154 154 153 150 148 150 148 142
6 6 23 45 27 11 334 296 175 178 223 215 204 216 216 199 188 182 163 138 116 137 138 144 154 143 128 141 153 152 153 152 152 152 151 149 148 146
26 33 40 45 21 11 353 322 151 169 220 206 204 208 205 189 174 152 150 150 149 161 146 136 144 125 121 138 154 154 151 151 150 151 150 147 147 148
18 42 46 36 16 6 349 351 109 290 280 149 165 178 186 175 169 168 165 164 149 156 170 142 146 138 139 150 151 156 154 156 157 158 157 154 152 153
1 14 23 20 12 359 354 1 327 258 231 127 124 123 134 145 155 157 156 162 160 161 166 149 149 154 149 147 155 167 164 160 164 166 169 167 165 163
346 358 1 358 355 349 349 341 343 11 99 96 95 101 113 127 138 141 142 142 139 153 163 156 152 164 151 146 159 167 173 172 168 170 173 177 183 190
326 326 321 322 329 326 311 309 335 10 119 125 128 133 122 120 117 122 125 122 113 131 156 159 149 154 154 155 155 157 164 182 178 171 174 181 188 188
297 297 297 296 292 294 297 281 245 204 159 149 147 140 128 125 131 137 133 128 118 114 132 145 154 153 153 151 150 161 164 172 180 180 175 184 191 188
328 307 285 275 265 256 256 247 217 171 163 157 145 146 148 151 159 156 141 135 140 149 144 119 113 114 128 147 157 169 167 171 175 175 173 188 202 197
323 286 285 275 264 252 243 242 226 200 192 186 174 172 172 172 176 169 158 159 164 167 166 158 136 110 72 4 176 170 173 177 175 174 172 185 210 208
255 257 260 261 255 245 233 228 225 210 190 187 188 188 183 180 176 178 178 177 179 178 173 164 162 160 173 205 238 196 176 176 169 174 185 188 202 207
232 244 249 251 245 238 230 229 223 211 199 196 200 200 193 185 183 186 185 186 184 178 175 175 182 185 188 190 191 204 194 174 171 182 192 192 193 182
234 234 235 238 237 229 224 223 221 214 207 199 200 202 201 192 192 193 189 190 187 181 186 196 200 185 162 121 127 176 198 197 179 173 175 173 189 199
241 239 232 228 224 220 216 214 219 222 217 209 205 201 200 198 197 197 190 186 189 191 192 185 166 159 159 172 189 193 191 186 195 190 186 175 170 193
235 236 233 224 219 214 209 211 214 219 217 213 209 205 199 199 200 198 197 194 187 185 179 170 168 173 183 186 190 193 186 180 174 180 234 221 208 198